This is the latest recevied weather packets stored in our database for station/object KC2TER. If no packets are shown the sender has not sent any weather packets the latest 10 day(s).
| Time | Temp. | Humidity | Pressure | Rain* | Wind** | Luminosity | Snow |
|---|---|---|---|---|---|---|---|
| 1777666157 | 16.11° C | 63% | 1011 hPa | 0 mm | - | 417 W/m² | - |
| 1777665854 | 16.11° C | 63% | 1011.1 hPa | 0 mm | - | 440 W/m² | - |
| 1777665552 | 15.56° C | 64% | 1011.3 hPa | 0 mm | - | 454 W/m² | - |
| 1777665248 | 16.11° C | 62% | 1011.5 hPa | 0 mm | - | 481 W/m² | - |
| 1777664944 | 16.11° C | 63% | 1011.4 hPa | 0 mm | - | 524 W/m² | - |
| 1777664640 | 16.11° C | 61% | 1011.4 hPa | 0 mm | - | 546 W/m² | - |
| 1777664336 | 15.56° C | 62% | 1011.7 hPa | 0 mm | - | 579 W/m² | - |
| 1777664035 | 15.56° C | 62% | 1011.8 hPa | 0 mm | - | 581 W/m² | - |
| 1777663732 | 15.56° C | 61% | 1011.9 hPa | 0 mm | - | 596 W/m² | - |
| 1777663429 | 15° C | 64% | 1012 hPa | 0 mm | - | 590 W/m² | - |
| 1777663126 | 15° C | 63% | 1011.8 hPa | 0 mm | - | 597 W/m² | - |
| 1777662823 | 15° C | 64% | 1012 hPa | 0 mm | - | 641 W/m² | - |
| 1777662520 | 15° C | 65% | 1012 hPa | 0 mm | - | 670 W/m² | - |
| 1777662216 | 15° C | 66% | 1012.2 hPa | 0 mm | - | 684 W/m² | - |
| 1777661911 | 15° C | 65% | 1012 hPa | 0 mm | - | 657 W/m² | - |
| 1777661607 | 15.56° C | 63% | 1012 hPa | 0 mm | - | 686 W/m² | - |
| 1777661303 | 14.44° C | 66% | 1012.2 hPa | 0 mm | - | 731 W/m² | - |
| 1777660999 | 15° C | 64% | 1012.1 hPa | 0 mm | - | 771 W/m² | - |
| 1777660695 | 15° C | 63% | 1012.4 hPa | 0 mm | - | 781 W/m² | - |
| 1777660393 | 14.44° C | 62% | 1012.1 hPa | 0 mm | - | 761 W/m² | - |
| 1777660089 | 15.56° C | 62% | 1012.3 hPa | 0 mm | - | 794 W/m² | - |
| 1777659785 | 15.56° C | 60% | 1012.6 hPa | 0 mm | - | 809 W/m² | - |
| 1777659482 | 15.56° C | 60% | 1012.2 hPa | 0 mm | - | 826 W/m² | - |
| 1777659180 | 15° C | 61% | 1012.1 hPa | 0 mm | - | 826 W/m² | - |
| 1777658877 | 14.44° C | 60% | 1012.3 hPa | 0 mm | - | 847 W/m² | - |
* Rain latest hour (hover to see other rain measurements)
** Current wind speed in m/s (hover to see current wind gust speed)